This demonstration page uses our WeatherBlox Daily Observations layout. Learn more.

Left ArrowRight Arrow

Hourly Observations for June 16, 2016

Temp ( °F °C ) Dew Point ( °F °C ) Humidity (%) Winds ( mph kmh ) Pressure ( in mb ) Visibility ( mi km ) Precip ( " mm )
12:52 am 00:52 Clear 80 26.7 74 23.3 82 82 SW 6 9 29.90 1012 10 16 0.00 0.00
1:52 am 01:52 Clear 79 26.1 73 22.8 82 82 WSW 6 9 29.90 1012 10 16 0.00 0.00
2:52 am 02:52 Partly Cloudy 81 27.2 75 23.9 82 82 W 14 22 29.92 1013 10 16 0.00 0.00
3:52 am 03:52 Clear 78 25.6 65 18.3 64 64 W 5 7 29.88 1012 10 16 0.00 0.00
4:52 am 04:52 Clear 73 22.8 66 18.9 79 79 SSE 6 9 29.86 1011 10 16 0.00 0.00
5:52 am 05:52 Clear 73 22.8 66 18.9 79 79 SSW 6 9 29.87 1012 10 16 0.00 0.00
6:52 am 06:52 Sunny 74 23.3 68 20 82 82 SSW 10 17 29.90 1013 10 16 0.00 0.00
7:52 am 07:52 Sunny 78 25.6 70 21.1 76 76 S 7 11 29.90 1013 10 16 0.00 0.00
8:52 am 08:52 Sunny 82 27.8 72 22.2 72 72 S 9 15 29.89 1012 10 16 0.00 0.00
9:52 am 09:52 Sunny 86 30 74 23.3 67 67 SSW 9 15 29.89 1012 10 16 0.00 0.00
10:52 am 10:52 Mostly Sunny 88 31.1 74 23.3 63 63 W 6 9 29.90 1013 10 16 0.00 0.00
11:52 am 11:52 Partly Cloudy 90 32.2 74 23.3 59 59 W 13 20 29.91 1013 10 16 0.00 0.00
12:52 pm 12:52 Partly Cloudy 92 33.3 74 23.3 56 56 W 6 9 29.90 1013 10 16 0.00 0.00
1:52 pm 13:52 Sunny 94 34.4 71 21.7 48 48 SW 8 13 29.88 1012 10 16 0.00 0.00
2:52 pm 14:52 Mostly Sunny 92 33.3 69 20.6 47 47 WSW 8 13 29.87 1011 10 16 0.00 0.00
3:52 pm 15:52 Mostly Sunny 89 31.7 75 23.9 63 63 NW 9 15 29.86 1011 10 16 0.00 0.00
4:52 pm 16:52 Sunny 91 32.8 76 24.4 61 61 ENE 6 9 29.85 1011 10 16 0.00 0.00
5:52 pm 17:52 Sunny 91 32.8 73 22.8 56 56 WSW 7 11 29.83 1010 10 16 0.00 0.00
6:52 pm 18:52 Sunny 91 32.8 72 22.2 54 54 SSW 7 11 29.83 1010 10 16 0.00 0.00
7:52 pm 19:52 Sunny 88 31.1 73 22.8 61 61 SSW 5 7 29.83 1010 10 16 0.00 0.00
8:52 pm 20:52 Clear 87 30.6 74 23.3 65 65 Calm 29.83 1010 10 16 0.00 0.00
9:52 pm 21:52 Clear 84 28.9 74 23.3 72 72 SW 5 7 29.86 1011 10 16 0.00 0.00
10:52 pm 22:52 Clear 83 28.3 73 22.8 72 72 W 5 7 29.87 1011 10 16 0.00 0.00
11:52 pm 23:52 Clear 80 26.7 74 23.3 82 82 S 8 13 29.86 1011 10 16 0.00 0.00

Powered by AerisWeather